• Em Portugal
  • Lista de países
  • Para 7 dias
  • Temperatura da água
  • Mapas de satélite
  • Mapa do tempo
  • Widgets de tempo
  • user-avatar
    Iniciar Sessão

    Previsão horária em Abrantes

    Hoje, 20 Agosto, Domingo

    Tempo Temperatura Precipitação Vento Pressão Humidade
    00:00 +25°C° 0 mm 2 m/s 754 mmHg 50%
    01:00 +25°C° 0 mm 2 m/s 754 mmHg 48%
    02:00 +25°C° 0 mm 2 m/s 754 mmHg 45%
    03:00 +25°C° 0 mm 2 m/s 754 mmHg 44%
    04:00 +24°C° 0 mm 2 m/s 754 mmHg 43%
    05:00 +24°C° 0 mm 2 m/s 754 mmHg 42%
    06:00 +28°C° 0 mm 2 m/s 754 mmHg 37%
    07:00 +31°C° 0 mm 3 m/s 754 mmHg 31%
    08:00 +35°C° 0 mm 3 m/s 754 mmHg 25%
    09:00 +38°C° 0 mm 3 m/s 754 mmHg 22%
    10:00 +40°C° 0 mm 3 m/s 754 mmHg 19%
    11:00 +43°C° 0 mm 2 m/s 754 mmHg 15%
    12:00 +45°C° 0 mm 2 m/s 754 mmHg 14%
    13:00 +45°C° 0 mm 2 m/s 753 mmHg 13%
    14:00 +46°C° 0 mm 2 m/s 753 mmHg 12%
    15:00 +45°C° 0 mm 2 m/s 753 mmHg 13%
    16:00 +43°C° 0 mm 3 m/s 752 mmHg 15%
    17:00 +42°C° 0 mm 3 m/s 752 mmHg 16%
    18:00 +38°C° 0 mm 3 m/s 753 mmHg 22%
    19:00 +34°C° 0 mm 2 m/s 753 mmHg 29%
    20:00 +29°C° 0 mm 2 m/s 753 mmHg 35%
    21:00 +28°C° 0 mm 2 m/s 753 mmHg 38%
    22:00 +27°C° 0 mm 1 m/s 753 mmHg 41%
    23:00 +26°C° 0 mm 1 m/s 753 mmHg 44%

    Amanhã, 21 Agosto, Segunda-feira

    Tempo Temperatura Precipitação Vento Pressão Humidade
    00:00 +26°C° 0 mm 1 m/s 753 mmHg 45%
    01:00 +25°C° 0 mm 1 m/s 753 mmHg 46%
    02:00 +25°C° 0 mm 1 m/s 753 mmHg 48%
    03:00 +24°C° 0 mm 1 m/s 753 mmHg 49%
    04:00 +24°C° 0 mm 1 m/s 753 mmHg 51%
    05:00 +23°C° 0 mm 1 m/s 753 mmHg 53%
    06:00 +26°C° 0 mm 1 m/s 753 mmHg 46%
    07:00 +29°C° 0 mm 1 m/s 753 mmHg 39%
    08:00 +32°C° 0 mm 1 m/s 754 mmHg 32%
    09:00 +36°C° 0 mm 2 m/s 754 mmHg 28%
    10:00 +38°C° 0 mm 2 m/s 753 mmHg 25%
    11:00 +40°C° 0 mm 2 m/s 753 mmHg 21%
    12:00 +40°C° 0 mm 3 m/s 753 mmHg 21%
    13:00 +42°C° 0 mm 3 m/s 753 mmHg 21%
    14:00 +42°C° 0 mm 3 m/s 752 mmHg 20%
    15:00 +41°C° 0 mm 4 m/s 752 mmHg 23%
    16:00 +38°C° 0 mm 4 m/s 752 mmHg 26%
    17:00 +37°C° 0 mm 4 m/s 752 mmHg 29%
    18:00 +34°C° 0 mm 3 m/s 752 mmHg 35%
    19:00 +30°C° 0 mm 3 m/s 753 mmHg 42%
    20:00 +27°C° 0 mm 2 m/s 753 mmHg 49%
    21:00 +26°C° 0 mm 2 m/s 753 mmHg 51%
    22:00 +25°C° 0 mm 1 m/s 753 mmHg 54%
    23:00 +24°C° 0 mm 1 m/s 753 mmHg 57%

    Depois de amanhã, 22 Agosto, Terça-feira

    Tempo Temperatura Precipitação Vento Pressão Humidade
    00:00 +24°C° 0 mm 1 m/s 753 mmHg 60%
    01:00 +23°C° 0 mm 1 m/s 753 mmHg 63%
    02:00 +22°C° 0 mm 1 m/s 753 mmHg 67%
    03:00 +22°C° 0 mm 1 m/s 754 mmHg 69%
    04:00 +21°C° 0 mm 1 m/s 754 mmHg 72%
    05:00 +21°C° 0 mm 1 m/s 754 mmHg 75%
    06:00 +24°C° 0 mm 1 m/s 754 mmHg 64%
    07:00 +27°C° 0 mm 1 m/s 754 mmHg 52%
    08:00 +30°C° 0 mm 1 m/s 755 mmHg 41%
    09:00 +32°C° 0 mm 2 m/s 755 mmHg 34%
    10:00 +36°C° 0 mm 2 m/s 754 mmHg 28%
    11:00 +38°C° 0 mm 2 m/s 754 mmHg 22%
    12:00 +39°C° 0 mm 3 m/s 754 mmHg 21%
    13:00 +39°C° 0 mm 3 m/s 754 mmHg 20%
    14:00 +41°C° 0 mm 4 m/s 753 mmHg 19%
    15:00 +38°C° 0 mm 4 m/s 753 mmHg 24%
    16:00 +36°C° 0 mm 5 m/s 753 mmHg 29%
    17:00 +34°C° 0 mm 5 m/s 753 mmHg 34%
    18:00 +30°C° 0 mm 4 m/s 753 mmHg 44%
    19:00 +27°C° 0 mm 3 m/s 754 mmHg 53%
    20:00 +24°C° 0 mm 3 m/s 754 mmHg 62%
    21:00 +23°C° 0 mm 2 m/s 754 mmHg 65%
    22:00 +21°C° 0 mm 2 m/s 754 mmHg 68%
    23:00 +21°C° 0 mm 2 m/s 754 mmHg 71%

    23 Agosto, Quarta-feira

    Tempo Temperatura Precipitação Vento Pressão Humidade
    00:00 +20°C° 0 mm 2 m/s 754 mmHg 73%
    01:00 +20°C° 0 mm 2 m/s 754 mmHg 75%
    02:00 +20°C° 0 mm 2 m/s 753 mmHg 76%
    03:00 +19°C° 0 mm 2 m/s 753 mmHg 77%
    04:00 +20°C° 0 mm 1 m/s 754 mmHg 77%
    05:00 +20°C° 0 mm 1 m/s 754 mmHg 77%
    06:00 +23°C° 0 mm 1 m/s 754 mmHg 65%
    07:00 +27°C° 0 mm 2 m/s 754 mmHg 52%
    08:00 +30°C° 0 mm 2 m/s 754 mmHg 40%
    09:00 +32°C° 0 mm 2 m/s 754 mmHg 34%
    10:00 +35°C° 0 mm 3 m/s 754 mmHg 28%
    11:00 +37°C° 0 mm 3 m/s 754 mmHg 22%
    12:00 +37°C° 0 mm 4 m/s 754 mmHg 22%
    13:00 +37°C° 0 mm 5 m/s 753 mmHg 22%
    14:00 +37°C° 0 mm 5 m/s 753 mmHg 22%
    15:00 +36°C° 0 mm 5 m/s 753 mmHg 27%
    16:00 +34°C° 0 mm 5 m/s 753 mmHg 31%
    17:00 +32°C° 0 mm 5 m/s 753 mmHg 35%
    18:00 +28°C° 0 mm 4 m/s 754 mmHg 46%
    19:00 +26°C° 0 mm 4 m/s 754 mmHg 58%
    20:00 +22°C° 0 mm 3 m/s 755 mmHg 69%
    21:00 +21°C° 0 mm 3 m/s 755 mmHg 74%
    22:00 +20°C° 0 mm 3 m/s 754 mmHg 80%
    23:00 +19°C° 0 mm 3 m/s 754 mmHg 85%

    24 Agosto, Quinta-feira

    Tempo Temperatura Precipitação Vento Pressão Humidade
    00:00 +19°C° 0 mm 3 m/s 754 mmHg 87%
    01:00 +19°C° 0 mm 2 m/s 754 mmHg 88%
    02:00 +18°C° 0 mm 2 m/s 754 mmHg 90%
    03:00 +18°C° 0 mm 2 m/s 754 mmHg 91%
    04:00 +18°C° 0 mm 2 m/s 754 mmHg 91%
    05:00 +18°C° 0 mm 2 m/s 754 mmHg 92%
    06:00 +20°C° 0 mm 2 m/s 754 mmHg 80%
    07:00 +24°C° 0 mm 2 m/s 754 mmHg 67%
    08:00 +26°C° 0 mm 2 m/s 755 mmHg 55%
    09:00 +29°C° 0 mm 3 m/s 754 mmHg 46%
    10:00 +31°C° 0 mm 3 m/s 754 mmHg 37%
    11:00 +34°C° 0 mm 4 m/s 754 mmHg 28%
    12:00 +34°C° 0 mm 4 m/s 754 mmHg 27%
    13:00 +34°C° 0 mm 5 m/s 753 mmHg 26%
    14:00 +35°C° 0 mm 5 m/s 753 mmHg 26%
    15:00 +33°C° 0 mm 5 m/s 753 mmHg 29%
    16:00 +32°C° 0 mm 5 m/s 753 mmHg 33%
    17:00 +29°C° 0 mm 5 m/s 753 mmHg 37%
    18:00 +27°C° 0 mm 4 m/s 754 mmHg 49%
    19:00 +24°C° 0 mm 3 m/s 754 mmHg 61%
    20:00 +20°C° 0 mm 3 m/s 754 mmHg 72%
    21:00 +19°C° 0 mm 2 m/s 754 mmHg 78%
    22:00 +19°C° 0 mm 2 m/s 754 mmHg 84%
    23:00 +18°C° 0 mm 2 m/s 754 mmHg 90%

    25 Agosto, Sexta-feira

    Tempo Temperatura Precipitação Vento Pressão Humidade
    00:00 +17°C° 0 mm 2 m/s 754 mmHg 91%
    01:00 +17°C° 0 mm 2 m/s 754 mmHg 92%
    02:00 +17°C° 0 mm 2 m/s 753 mmHg 93%
    03:00 +17°C° 0 mm 2 m/s 753 mmHg 93%
    04:00 +16°C° 0 mm 2 m/s 753 mmHg 94%
    05:00 +16°C° 0 mm 2 m/s 754 mmHg 94%
    06:00 +19°C° 0 mm 2 m/s 754 mmHg 82%
    07:00 +21°C° 0 mm 2 m/s 754 mmHg 69%
    08:00 +24°C° 0 mm 2 m/s 754 mmHg 57%
    09:00 +27°C° 0 mm 2 m/s 754 mmHg 48%
    10:00 +29°C° 0 mm 2 m/s 754 mmHg 38%
    11:00 +31°C° 0 mm 3 m/s 754 mmHg 29%
    12:00 +33°C° 0 mm 3 m/s 753 mmHg 29%
    13:00 +33°C° 0 mm 4 m/s 753 mmHg 28%
    14:00 +33°C° 0 mm 4 m/s 752 mmHg 28%
    15:00 +32°C° 0 mm 4 m/s 752 mmHg 33%
    16:00 +29°C° 0 mm 4 m/s 752 mmHg 38%
    17:00 +28°C° 0 mm 4 m/s 752 mmHg 43%
    18:00 +25°C° 0 mm 4 m/s 753 mmHg 55%
    19:00 +22°C° 0 mm 3 m/s 753 mmHg 67%
    20:00 +19°C° 0 mm 3 m/s 753 mmHg 79%
    21:00 +19°C° 0 mm 3 m/s 753 mmHg 83%
    22:00 +18°C° 0 mm 2 m/s 753 mmHg 88%
    23:00 +17°C° 0 mm 2 m/s 753 mmHg 92%
    Mostrar mais